Year,Month,Day,Hour,Minute,Value (Times are PST for insolation in W/m^2)
2012,06,25,00,00,0.00
2012,06,25,00,01,0.00
2012,06,25,00,02,0.00
2012,06,25,00,03,0.00
2012,06,25,00,04,0.00
2012,06,25,00,05,0.00
2012,06,25,00,06,0.00
2012,06,25,00,07,0.00
2012,06,25,00,08,0.00
2012,06,25,00,09,0.00
2012,06,25,00,10,0.00
2012,06,25,00,11,0.00
2012,06,25,00,12,0.00
2012,06,25,00,13,0.00
2012,06,25,00,14,0.00
2012,06,25,00,15,0.00
2012,06,25,00,16,0.00
2012,06,25,00,17,0.00
2012,06,25,00,18,0.00
2012,06,25,00,19,0.00
2012,06,25,00,20,0.00
2012,06,25,00,21,0.00
2012,06,25,00,22,0.00
2012,06,25,00,23,0.00
2012,06,25,00,24,0.00
2012,06,25,00,25,0.00
2012,06,25,00,26,0.00
2012,06,25,00,27,0.00
2012,06,25,00,28,0.00
2012,06,25,00,29,0.00
2012,06,25,00,30,0.00
2012,06,25,00,31,0.00
2012,06,25,00,32,0.00
2012,06,25,00,33,0.00
2012,06,25,00,34,0.00
2012,06,25,00,35,0.00
2012,06,25,00,36,0.00
2012,06,25,00,37,0.00
2012,06,25,00,38,0.00
2012,06,25,00,39,0.00
2012,06,25,00,40,0.00
2012,06,25,00,41,0.00
2012,06,25,00,42,0.00
2012,06,25,00,43,0.00
2012,06,25,00,44,0.00
2012,06,25,00,45,0.00
2012,06,25,00,46,0.00
2012,06,25,00,47,0.00
2012,06,25,00,48,0.00
2012,06,25,00,49,0.00
2012,06,25,00,50,0.00
2012,06,25,00,51,0.00
2012,06,25,00,52,0.00
2012,06,25,00,53,0.00
2012,06,25,00,54,0.00
2012,06,25,00,55,0.00
2012,06,25,00,56,0.00
2012,06,25,00,57,0.00
2012,06,25,00,58,0.00
2012,06,25,00,59,0.00
2012,06,25,01,00,0.00
2012,06,25,01,01,0.00
2012,06,25,01,02,0.00
2012,06,25,01,03,0.00
2012,06,25,01,04,0.00
2012,06,25,01,05,0.00
2012,06,25,01,06,0.00
2012,06,25,01,07,0.00
2012,06,25,01,08,0.00
2012,06,25,01,09,0.00
2012,06,25,01,10,0.00
2012,06,25,01,11,0.00
2012,06,25,01,12,0.00
2012,06,25,01,13,0.00
2012,06,25,01,14,0.00
2012,06,25,01,15,0.00
2012,06,25,01,16,0.00
2012,06,25,01,17,0.00
2012,06,25,01,18,0.00
2012,06,25,01,19,0.00
2012,06,25,01,20,0.00
2012,06,25,01,21,0.00
2012,06,25,01,22,0.00
2012,06,25,01,23,0.00
2012,06,25,01,24,0.00
2012,06,25,01,25,0.00
2012,06,25,01,26,0.00
2012,06,25,01,27,0.00
2012,06,25,01,28,0.00
2012,06,25,01,29,0.00
2012,06,25,01,30,0.00
2012,06,25,01,31,0.00
2012,06,25,01,32,0.00
2012,06,25,01,33,0.00
2012,06,25,01,34,0.00
2012,06,25,01,35,0.00
2012,06,25,01,36,0.00
2012,06,25,01,37,0.00
2012,06,25,01,38,0.00
2012,06,25,01,39,0.00
2012,06,25,01,40,0.00
2012,06,25,01,41,0.00
2012,06,25,01,42,0.00
2012,06,25,01,43,0.00
2012,06,25,01,44,0.00
2012,06,25,01,45,0.00
2012,06,25,01,46,0.00
2012,06,25,01,47,0.00
2012,06,25,01,48,0.00
2012,06,25,01,49,0.00
2012,06,25,01,50,0.00
2012,06,25,01,51,0.00
2012,06,25,01,52,0.00
2012,06,25,01,53,0.00
2012,06,25,01,54,0.00
2012,06,25,01,55,0.00
2012,06,25,01,56,0.00
2012,06,25,01,57,0.00
2012,06,25,01,58,0.00
2012,06,25,01,59,0.00
2012,06,25,02,00,0.00
2012,06,25,02,01,0.00
2012,06,25,02,02,0.00
2012,06,25,02,03,0.00
2012,06,25,02,04,0.00
2012,06,25,02,05,0.00
2012,06,25,02,06,0.00
2012,06,25,02,07,0.00
2012,06,25,02,08,0.00
2012,06,25,02,09,0.00
2012,06,25,02,10,0.00
2012,06,25,02,11,0.00
2012,06,25,02,12,0.00
2012,06,25,02,13,0.00
2012,06,25,02,14,0.00
2012,06,25,02,15,0.00
2012,06,25,02,16,0.00
2012,06,25,02,17,0.00
2012,06,25,02,18,0.00
2012,06,25,02,19,0.00
2012,06,25,02,20,0.00
2012,06,25,02,21,0.00
2012,06,25,02,22,0.00
2012,06,25,02,23,0.00
2012,06,25,02,24,0.00
2012,06,25,02,25,0.00
2012,06,25,02,26,0.00
2012,06,25,02,27,0.00
2012,06,25,02,28,0.00
2012,06,25,02,29,0.00
2012,06,25,02,30,0.00
2012,06,25,02,31,0.00
2012,06,25,02,32,0.00
2012,06,25,02,33,0.00
2012,06,25,02,34,0.00
2012,06,25,02,35,0.00
2012,06,25,02,36,0.00
2012,06,25,02,37,0.00
2012,06,25,02,38,0.00
2012,06,25,02,39,0.00
2012,06,25,02,40,0.00
2012,06,25,02,41,0.00
2012,06,25,02,42,0.00
2012,06,25,02,43,0.00
2012,06,25,02,44,0.00
2012,06,25,02,45,0.00
2012,06,25,02,46,0.00
2012,06,25,02,47,0.00
2012,06,25,02,48,0.00
2012,06,25,02,49,0.00
2012,06,25,02,50,0.00
2012,06,25,02,51,0.00
2012,06,25,02,52,0.00
2012,06,25,02,53,0.00
2012,06,25,02,54,0.00
2012,06,25,02,55,0.00
2012,06,25,02,56,0.00
2012,06,25,02,57,0.00
2012,06,25,02,58,0.00
2012,06,25,02,59,0.00
2012,06,25,03,00,0.00
2012,06,25,03,01,0.00
2012,06,25,03,02,0.00
2012,06,25,03,06,0.00
2012,06,25,03,07,0.00
2012,06,25,03,08,0.00
2012,06,25,03,09,0.00
2012,06,25,03,10,0.00
2012,06,25,03,11,0.00
2012,06,25,03,12,0.00
2012,06,25,03,13,0.00
2012,06,25,03,14,0.00
2012,06,25,03,15,0.00
2012,06,25,03,16,0.00
2012,06,25,03,17,0.00
2012,06,25,03,18,0.00
2012,06,25,03,19,0.00
2012,06,25,03,20,0.00
2012,06,25,03,21,0.00
2012,06,25,03,22,0.00
2012,06,25,03,23,0.00
2012,06,25,03,24,0.00
2012,06,25,03,25,0.00
2012,06,25,03,26,0.00
2012,06,25,03,27,0.00
2012,06,25,03,28,0.00
2012,06,25,03,29,0.00
2012,06,25,03,30,0.00
2012,06,25,03,31,0.00
2012,06,25,03,32,0.00
2012,06,25,03,33,0.00
2012,06,25,03,34,0.00
2012,06,25,03,35,0.00
2012,06,25,03,36,0.00
2012,06,25,03,37,0.00
2012,06,25,03,38,0.00
2012,06,25,03,39,0.00
2012,06,25,03,40,0.00
2012,06,25,03,41,0.00
2012,06,25,03,42,0.00
2012,06,25,03,43,0.00
2012,06,25,03,44,0.00
2012,06,25,03,45,0.00
2012,06,25,03,46,0.00
2012,06,25,03,47,0.00
2012,06,25,03,48,0.00
2012,06,25,03,49,0.00
2012,06,25,03,50,0.00
2012,06,25,03,51,0.00
2012,06,25,03,52,0.00
2012,06,25,03,53,0.00
2012,06,25,03,54,0.00
2012,06,25,03,55,0.00
2012,06,25,03,56,0.00
2012,06,25,03,57,0.00
2012,06,25,03,58,0.00
2012,06,25,03,59,0.00
2012,06,25,04,00,0.00
2012,06,25,04,01,0.00
2012,06,25,04,02,0.00
2012,06,25,04,03,0.00
2012,06,25,04,04,0.00
2012,06,25,04,05,0.00
2012,06,25,04,06,0.00
2012,06,25,04,07,0.00
2012,06,25,04,08,0.00
2012,06,25,04,09,0.00
2012,06,25,04,10,0.00
2012,06,25,04,11,0.00
2012,06,25,04,12,0.00
2012,06,25,04,13,0.00
2012,06,25,04,14,0.00
2012,06,25,04,15,0.00
2012,06,25,04,16,0.00
2012,06,25,04,17,0.00
2012,06,25,04,18,0.00
2012,06,25,04,19,0.00
2012,06,25,04,20,0.00
2012,06,25,04,21,0.00
2012,06,25,04,22,0.00
2012,06,25,04,23,0.00
2012,06,25,04,24,0.00
2012,06,25,04,25,0.00
2012,06,25,04,26,0.00
2012,06,25,04,27,0.00
2012,06,25,04,28,0.00
2012,06,25,04,29,0.00
2012,06,25,04,30,0.00
2012,06,25,04,31,0.00
2012,06,25,04,32,0.00
2012,06,25,04,33,0.00
2012,06,25,04,34,0.00
2012,06,25,04,35,0.00
2012,06,25,04,36,0.00
2012,06,25,04,37,0.00
2012,06,25,04,38,0.00
2012,06,25,04,39,0.00
2012,06,25,04,40,0.00
2012,06,25,04,41,0.00
2012,06,25,04,42,0.00
2012,06,25,04,43,0.00
2012,06,25,04,44,0.00
2012,06,25,04,45,0.00
2012,06,25,04,46,0.00
2012,06,25,04,47,0.00
2012,06,25,04,48,0.00
2012,06,25,04,49,0.00
2012,06,25,04,50,0.00
2012,06,25,04,51,0.00
2012,06,25,04,52,0.00
2012,06,25,04,53,0.00
2012,06,25,04,54,0.00
2012,06,25,04,55,0.00
2012,06,25,04,56,0.00
2012,06,25,04,57,0.00
2012,06,25,04,58,0.00
2012,06,25,04,59,0.00
2012,06,25,05,00,0.00
2012,06,25,05,01,0.00
2012,06,25,05,02,0.00
2012,06,25,05,03,0.00
2012,06,25,05,04,0.00
2012,06,25,05,05,0.00
2012,06,25,05,06,0.00
2012,06,25,05,07,0.00
2012,06,25,05,08,0.00
2012,06,25,05,09,0.00
2012,06,25,05,10,0.00
2012,06,25,05,11,0.00
2012,06,25,05,12,0.00
2012,06,25,05,13,0.00
2012,06,25,05,14,0.00
2012,06,25,05,15,0.00
2012,06,25,05,16,5.00
2012,06,25,05,17,5.00
2012,06,25,05,18,5.00
2012,06,25,05,19,6.10
2012,06,25,05,20,7.00
2012,06,25,05,21,7.00
2012,06,25,05,22,7.00
2012,06,25,05,23,7.50
2012,06,25,05,24,9.00
2012,06,25,05,25,9.00
2012,06,25,05,26,10.50
2012,06,25,05,27,11.00
2012,06,25,05,28,11.20
2012,06,25,05,29,12.00
2012,06,25,05,30,12.00
2012,06,25,05,31,12.00
2012,06,25,05,32,12.00
2012,06,25,05,33,13.80
2012,06,25,05,34,14.00
2012,06,25,05,35,14.00
2012,06,25,05,36,14.00
2012,06,25,05,37,14.00
2012,06,25,05,38,14.00
2012,06,25,05,39,14.00
2012,06,25,05,40,14.00
2012,06,25,05,41,14.00
2012,06,25,05,42,14.00
2012,06,25,05,43,15.30
2012,06,25,05,44,16.00
2012,06,25,05,45,16.00
2012,06,25,05,46,16.00
2012,06,25,05,47,16.80
2012,06,25,05,48,18.00
2012,06,25,05,49,18.00
2012,06,25,05,50,18.00
2012,06,25,05,51,19.00
2012,06,25,05,52,19.00
2012,06,25,05,53,19.00
2012,06,25,05,54,19.00
2012,06,25,05,55,19.00
2012,06,25,05,56,19.00
2012,06,25,05,57,19.00
2012,06,25,05,58,19.50
2012,06,25,05,59,21.00
2012,06,25,06,00,21.00
2012,06,25,06,01,21.00
2012,06,25,06,02,21.00
2012,06,25,06,03,21.00
2012,06,25,06,04,21.00
2012,06,25,06,05,21.00
2012,06,25,06,06,21.00
2012,06,25,06,07,21.00
2012,06,25,06,08,21.00
2012,06,25,06,09,21.00
2012,06,25,06,10,21.00
2012,06,25,06,11,20.10
2012,06,25,06,12,19.00
2012,06,25,06,13,20.50
2012,06,25,06,14,21.00
2012,06,25,06,15,21.00
2012,06,25,06,16,21.00
2012,06,25,06,17,22.00
2012,06,25,06,18,23.00
2012,06,25,06,19,23.00
2012,06,25,06,20,23.10
2012,06,25,06,21,25.00
2012,06,25,06,22,25.00
2012,06,25,06,23,25.00
2012,06,25,06,24,25.00
2012,06,25,06,25,25.80
2012,06,25,06,26,26.00
2012,06,25,06,27,26.00
2012,06,25,06,28,26.70
2012,06,25,06,29,28.00
2012,06,25,06,30,28.00
2012,06,25,06,31,28.00
2012,06,25,06,32,28.20
2012,06,25,06,33,30.00
2012,06,25,06,34,30.00
2012,06,25,06,35,30.00
2012,06,25,06,36,30.00
2012,06,25,06,37,30.00
2012,06,25,06,38,30.20
2012,06,25,06,39,32.00
2012,06,25,06,40,32.00
2012,06,25,06,41,32.00
2012,06,25,06,42,32.70
2012,06,25,06,43,34.60
2012,06,25,06,44,60.20
2012,06,25,06,45,98.90
2012,06,25,06,46,126.20
2012,06,25,06,47,138.40
2012,06,25,06,48,146.80
2012,06,25,06,49,154.90
2012,06,25,06,50,163.60
2012,06,25,06,51,169.90
2012,06,25,06,52,173.80
2012,06,25,06,53,177.20
2012,06,25,06,54,178.70
2012,06,25,06,55,180.70
2012,06,25,06,56,181.60
2012,06,25,06,57,185.90
2012,06,25,06,58,188.90
2012,06,25,06,59,191.30
2012,06,25,07,00,192.80
2012,06,25,07,01,194.70
2012,06,25,07,02,196.00
2012,06,25,07,03,200.00
2012,06,25,07,04,200.00
2012,06,25,07,05,203.90
2012,06,25,07,06,208.40
2012,06,25,07,07,212.60
2012,06,25,07,08,214.80
2012,06,25,07,09,218.70
2012,06,25,07,10,220.00
2012,06,25,07,11,220.60
2012,06,25,07,12,221.00
2012,06,25,07,13,223.30
2012,06,25,07,14,227.40
2012,06,25,07,15,229.40
2012,06,25,07,16,231.00
2012,06,25,07,17,234.70
2012,06,25,07,18,236.80
2012,06,25,07,19,239.10
2012,06,25,07,20,241.50
2012,06,25,07,21,243.40
2012,06,25,07,22,245.10
2012,06,25,07,23,246.00
2012,06,25,07,24,249.20
2012,06,25,07,25,253.10
2012,06,25,07,26,255.60
2012,06,25,07,27,257.40
2012,06,25,07,28,259.10
2012,06,25,07,29,261.40
2012,06,25,07,30,264.50
2012,06,25,07,31,267.30
2012,06,25,07,32,269.60
2012,06,25,07,33,271.50
2012,06,25,07,34,272.00
2012,06,25,07,35,272.00
2012,06,25,07,36,277.40
2012,06,25,07,37,278.80
2012,06,25,07,38,283.60
2012,06,25,07,39,285.00
2012,06,25,07,40,285.00
2012,06,25,07,41,288.80
2012,06,25,07,42,293.60
2012,06,25,07,43,293.40
2012,06,25,07,44,274.10
2012,06,25,07,45,225.00
2012,06,25,07,46,206.00
2012,06,25,07,47,206.00
2012,06,25,07,48,289.00
2012,06,25,07,49,272.20
2012,06,25,07,50,267.50
2012,06,25,07,51,272.50
2012,06,25,07,52,196.90
2012,06,25,07,53,86.20
2012,06,25,07,54,136.00
2012,06,25,07,55,179.80
2012,06,25,07,56,173.80
2012,06,25,07,57,140.50
2012,06,25,07,58,101.60
2012,06,25,07,59,88.40
2012,06,25,08,00,158.10
2012,06,25,08,01,227.00
2012,06,25,08,02,197.00
2012,06,25,08,03,120.60
2012,06,25,08,04,51.70
2012,06,25,08,05,62.50
2012,06,25,08,06,53.60
2012,06,25,08,07,50.20
2012,06,25,08,08,42.00
2012,06,25,08,09,50.10
2012,06,25,08,10,63.70
2012,06,25,08,11,61.00
2012,06,25,08,12,67.00
2012,06,25,08,13,63.60
2012,06,25,08,14,57.60
2012,06,25,08,15,59.60
2012,06,25,08,16,54.30
2012,06,25,08,17,55.50
2012,06,25,08,18,63.80
2012,06,25,08,19,73.90
2012,06,25,08,20,90.00
2012,06,25,08,21,76.20
2012,06,25,08,22,100.00
2012,06,25,08,23,113.70
2012,06,25,08,24,160.20
2012,06,25,08,25,149.00
2012,06,25,08,26,262.50
2012,06,25,08,27,400.00
2012,06,25,08,28,416.20
2012,06,25,08,29,419.90
2012,06,25,08,30,424.00
2012,06,25,08,31,428.20
2012,06,25,08,32,439.30
2012,06,25,08,33,447.50
2012,06,25,08,34,455.60
2012,06,25,08,35,456.80
2012,06,25,08,36,454.20
2012,06,25,08,37,452.00
2012,06,25,08,38,453.00
2012,06,25,08,39,456.00
2012,06,25,08,40,458.60
2012,06,25,08,41,461.90
2012,06,25,08,42,462.50
2012,06,25,08,43,464.00
2012,06,25,08,44,466.10
2012,06,25,08,45,468.70
2012,06,25,08,46,470.70
2012,06,25,08,47,473.30
2012,06,25,08,48,476.50
2012,06,25,08,49,478.80
2012,06,25,08,50,480.00
2012,06,25,08,51,484.90
2012,06,25,08,52,489.50
2012,06,25,08,53,494.50
2012,06,25,08,54,497.60
2012,06,25,08,55,500.80
2012,06,25,08,56,503.00
2012,06,25,08,57,503.70
2012,06,25,08,58,505.70
2012,06,25,08,59,508.80
2012,06,25,09,00,512.00
2012,06,25,09,01,514.00
2012,06,25,09,02,518.20
2012,06,25,09,03,519.80
2012,06,25,09,04,520.20
2012,06,25,09,05,525.10
2012,06,25,09,06,529.70
2012,06,25,09,07,532.30
2012,06,25,09,08,536.40
2012,06,25,09,09,539.50
2012,06,25,09,10,541.00
2012,06,25,09,11,543.00
2012,06,25,09,12,543.70
2012,06,25,09,13,545.00
2012,06,25,09,14,545.00
2012,06,25,09,15,550.20
2012,06,25,09,16,554.00
2012,06,25,09,17,555.00
2012,06,25,09,18,556.50
2012,06,25,09,19,559.00
2012,06,25,09,20,560.30
2012,06,25,09,21,563.40
2012,06,25,09,22,567.80
2012,06,25,09,23,568.40
2012,06,25,09,24,570.00
2012,06,25,09,25,571.70
2012,06,25,09,26,573.00
2012,06,25,09,27,568.80
2012,06,25,09,28,571.00
2012,06,25,09,29,571.00
2012,06,25,09,30,573.50
2012,06,25,09,31,579.80
2012,06,25,09,32,585.20
2012,06,25,09,33,590.40
2012,06,25,09,34,598.80
2012,06,25,09,35,603.00
2012,06,25,09,36,603.00
2012,06,25,09,37,604.20
2012,06,25,09,38,600.10
2012,06,25,09,39,592.10
2012,06,25,09,40,591.00
2012,06,25,09,41,593.10
2012,06,25,09,42,600.90
2012,06,25,09,43,611.90
2012,06,25,09,44,620.00
2012,06,25,09,45,623.70
2012,06,25,09,46,624.40
2012,06,25,09,47,626.00
2012,06,25,09,48,629.50
2012,06,25,09,49,631.80
2012,06,25,09,50,632.50
2012,06,25,09,51,635.70
2012,06,25,09,52,636.40
2012,06,25,09,53,638.60
2012,06,25,09,54,641.00
2012,06,25,09,55,640.70
2012,06,25,09,56,640.00
2012,06,25,09,57,646.70
2012,06,25,09,58,648.10
2012,06,25,09,59,652.70
2012,06,25,10,00,655.00
2012,06,25,10,01,658.00
2012,06,25,10,02,660.60
2012,06,25,10,03,661.10
2012,06,25,10,04,663.20
2012,06,25,10,05,662.80
2012,06,25,10,06,666.30
2012,06,25,10,07,673.60
2012,06,25,10,08,676.70
2012,06,25,10,09,673.20
2012,06,25,10,10,677.20
2012,06,25,10,11,684.00
2012,06,25,10,12,685.70
2012,06,25,10,13,687.00
2012,06,25,10,14,692.10
2012,06,25,10,15,692.10
2012,06,25,10,16,690.50
2012,06,25,10,17,659.00
2012,06,25,10,18,680.00
2012,06,25,10,19,636.20
2012,06,25,10,20,644.20
2012,06,25,10,21,592.10
2012,06,25,10,22,649.10
2012,06,25,10,23,694.60
2012,06,25,10,24,715.20
2012,06,25,10,25,717.50
2012,06,25,10,26,720.60
2012,06,25,10,27,722.30
2012,06,25,10,28,725.20
2012,06,25,10,29,728.50
2012,06,25,10,30,729.00
2012,06,25,10,31,729.00
2012,06,25,10,32,701.10
2012,06,25,10,33,706.50
2012,06,25,10,34,701.20
2012,06,25,10,35,720.00
2012,06,25,10,36,690.80
2012,06,25,10,37,738.00
2012,06,25,10,38,746.50
2012,06,25,10,39,654.40
2012,06,25,10,40,693.60
2012,06,25,10,41,725.90
2012,06,25,10,42,753.00
2012,06,25,10,43,758.20
2012,06,25,10,44,765.60
2012,06,25,10,45,766.00
2012,06,25,10,46,767.60
2012,06,25,10,47,771.70
2012,06,25,10,48,745.60
2012,06,25,10,49,654.60
2012,06,25,10,50,647.30
2012,06,25,10,51,667.80
2012,06,25,10,52,740.80
2012,06,25,10,53,784.50
2012,06,25,10,54,747.60
2012,06,25,10,55,722.60
2012,06,25,10,56,766.80
2012,06,25,10,57,777.50
2012,06,25,10,58,776.60
2012,06,25,10,59,775.20
2012,06,25,11,00,785.20
2012,06,25,11,01,788.90
2012,06,25,11,02,791.00
2012,06,25,11,03,791.60
2012,06,25,11,04,793.00
2012,06,25,11,05,788.80
2012,06,25,11,06,788.20
2012,06,25,11,07,792.40
2012,06,25,11,08,795.20
2012,06,25,11,09,797.90
2012,06,25,11,10,802.50
2012,06,25,11,11,805.40
2012,06,25,11,12,804.00
2012,06,25,11,13,806.70
2012,06,25,11,14,808.20
2012,06,25,11,15,805.70
2012,06,25,11,16,805.10
2012,06,25,11,17,805.40
2012,06,25,11,18,807.00
2012,06,25,11,19,809.80
2012,06,25,11,20,810.40
2012,06,25,11,21,813.40
2012,06,25,11,22,816.00
2012,06,25,11,23,814.70
2012,06,25,11,24,819.60
2012,06,25,11,25,823.00
2012,06,25,11,26,824.50
2012,06,25,11,27,827.60
2012,06,25,11,28,830.00
2012,06,25,11,29,833.50
2012,06,25,11,30,831.80
2012,06,25,11,31,837.50
2012,06,25,11,32,837.70
2012,06,25,11,33,840.00
2012,06,25,11,34,843.30
2012,06,25,11,35,846.00
2012,06,25,11,36,844.30
2012,06,25,11,37,847.30
2012,06,25,11,38,850.10
2012,06,25,11,39,853.00
2012,06,25,11,40,853.60
2012,06,25,11,41,856.80
2012,06,25,11,42,858.00
2012,06,25,11,43,859.60
2012,06,25,11,44,855.90
2012,06,25,11,45,851.00
2012,06,25,11,46,851.00
2012,06,25,11,47,849.60
2012,06,25,11,48,850.80
2012,06,25,11,49,853.00
2012,06,25,11,50,852.30
2012,06,25,11,51,852.40
2012,06,25,11,52,855.20
2012,06,25,11,53,856.00
2012,06,25,11,54,857.80
2012,06,25,11,55,859.00
2012,06,25,11,56,863.00
2012,06,25,11,57,863.00
2012,06,25,11,58,861.70
2012,06,25,11,59,862.60
2012,06,25,12,00,865.00
2012,06,25,12,01,867.00
2012,06,25,12,02,864.40
2012,06,25,12,03,868.70
2012,06,25,12,04,868.70
2012,06,25,12,05,869.60
2012,06,25,12,06,871.80
2012,06,25,12,07,872.40
2012,06,25,12,08,873.20
2012,06,25,12,09,872.00
2012,06,25,12,10,874.10
2012,06,25,12,11,876.60
2012,06,25,12,12,877.00
2012,06,25,12,13,877.00
2012,06,25,12,14,877.00
2012,06,25,12,15,879.20
2012,06,25,12,16,881.70
2012,06,25,12,17,882.00
2012,06,25,12,18,879.90
2012,06,25,12,19,884.50
2012,06,25,12,20,885.20
2012,06,25,12,21,885.10
2012,06,25,12,22,886.00
2012,06,25,12,23,884.30
2012,06,25,12,24,884.30
2012,06,25,12,25,886.00
2012,06,25,12,26,887.30
2012,06,25,12,27,888.50
2012,06,25,12,28,888.70
2012,06,25,12,29,889.30
2012,06,25,12,30,895.20
2012,06,25,12,31,895.70
2012,06,25,12,32,895.50
2012,06,25,12,33,897.20
2012,06,25,12,34,901.00
2012,06,25,12,35,903.90
2012,06,25,12,36,905.20
2012,06,25,12,37,901.20
2012,06,25,12,38,908.90
2012,06,25,12,39,906.80
2012,06,25,12,40,906.20
2012,06,25,12,41,887.00
2012,06,25,12,42,890.80
2012,06,25,12,43,907.60
2012,06,25,12,44,905.00
2012,06,25,12,45,905.00
2012,06,25,12,46,908.20
2012,06,25,12,47,910.90
2012,06,25,12,48,910.00
2012,06,25,12,49,907.00
2012,06,25,12,50,909.10
2012,06,25,12,51,909.70
2012,06,25,12,52,909.00
2012,06,25,12,53,915.30
2012,06,25,12,54,894.00
2012,06,25,12,55,820.20
2012,06,25,12,56,814.60
2012,06,25,12,57,881.20
2012,06,25,12,58,926.60
2012,06,25,12,59,930.40
2012,06,25,13,00,931.40
2012,06,25,13,01,929.10
2012,06,25,13,02,929.20
2012,06,25,13,03,928.60
2012,06,25,13,04,929.70
2012,06,25,13,05,925.80
2012,06,25,13,06,925.30
2012,06,25,13,07,926.00
2012,06,25,13,08,926.00
2012,06,25,13,09,927.40
2012,06,25,13,10,931.40
2012,06,25,13,11,932.50
2012,06,25,13,12,934.40
2012,06,25,13,13,934.80
2012,06,25,13,14,937.00
2012,06,25,13,15,935.50
2012,06,25,13,16,933.20
2012,06,25,13,17,932.60
2012,06,25,13,18,933.30
2012,06,25,13,19,929.00
2012,06,25,13,20,930.50
2012,06,25,13,21,930.50
2012,06,25,13,22,924.60
2012,06,25,13,23,914.60
2012,06,25,13,24,920.50
2012,06,25,13,25,912.00
2012,06,25,13,26,922.80
2012,06,25,13,27,932.20
2012,06,25,13,28,933.70
2012,06,25,13,29,941.00
2012,06,25,13,30,942.50
2012,06,25,13,31,943.50
2012,06,25,13,32,947.00
2012,06,25,13,33,954.70
2012,06,25,13,34,963.20
2012,06,25,13,35,965.00
2012,06,25,13,36,968.80
2012,06,25,13,37,975.00
2012,06,25,13,38,976.70
2012,06,25,13,39,983.00
2012,06,25,13,40,998.60
2012,06,25,13,41,1005.60
2012,06,25,13,42,1028.30
2012,06,25,13,43,1048.00
2012,06,25,13,44,463.70
2012,06,25,13,45,265.20
2012,06,25,13,46,298.90
2012,06,25,13,47,311.10
2012,06,25,13,48,322.30
2012,06,25,13,49,347.40
2012,06,25,13,50,429.30
2012,06,25,13,51,457.00
2012,06,25,13,52,321.50
2012,06,25,13,53,328.40
2012,06,25,13,54,312.10
2012,06,25,13,55,295.00
2012,06,25,13,56,295.00
2012,06,25,13,57,332.20
2012,06,25,13,58,311.80
2012,06,25,13,59,334.10
2012,06,25,14,00,376.20
2012,06,25,14,01,396.00
2012,06,25,14,02,396.00
2012,06,25,14,03,393.10
2012,06,25,14,04,336.80
2012,06,25,14,05,332.70
2012,06,25,14,06,330.70
2012,06,25,14,07,321.30
2012,06,25,14,08,316.50
2012,06,25,14,09,327.10
2012,06,25,14,10,342.40
2012,06,25,14,11,385.80
2012,06,25,14,12,443.00
2012,06,25,14,13,443.00
2012,06,25,14,14,443.00
2012,06,25,14,15,443.00
2012,06,25,14,16,443.00
2012,06,25,14,17,443.00
2012,06,25,14,18,406.50
2012,06,25,14,19,354.00
2012,06,25,14,20,336.80
2012,06,25,14,21,362.30
2012,06,25,14,22,414.20
2012,06,25,14,23,482.00
2012,06,25,14,24,482.00
2012,06,25,14,25,482.00
2012,06,25,14,26,482.00
2012,06,25,14,27,366.10
2012,06,25,14,28,380.70
2012,06,25,14,29,379.80
2012,06,25,14,30,356.50
2012,06,25,14,31,334.80
2012,06,25,14,32,317.50
2012,06,25,14,33,301.20
2012,06,25,14,34,295.50
2012,06,25,14,35,290.20
2012,06,25,14,36,289.20
2012,06,25,14,37,293.90
2012,06,25,14,38,301.30
2012,06,25,14,39,301.80
2012,06,25,14,40,300.40
2012,06,25,14,41,295.00
2012,06,25,14,42,285.50
2012,06,25,14,43,279.10
2012,06,25,14,44,274.20
2012,06,25,14,45,271.80
2012,06,25,14,46,270.30
2012,06,25,14,47,268.00
2012,06,25,14,48,265.10
2012,06,25,14,49,264.00
2012,06,25,14,50,264.10
2012,06,25,14,51,269.20
2012,06,25,14,52,279.90
2012,06,25,14,53,291.00
2012,06,25,14,54,299.50
2012,06,25,14,55,305.40
2012,06,25,14,56,306.20
2012,06,25,14,57,308.20
2012,06,25,14,58,309.80
2012,06,25,14,59,317.00
2012,06,25,15,00,337.00
2012,06,25,15,01,334.60
2012,06,25,15,02,335.00
2012,06,25,15,03,352.90
2012,06,25,15,04,353.70
2012,06,25,15,05,348.70
2012,06,25,15,06,343.80
2012,06,25,15,07,333.60
2012,06,25,15,08,319.40
2012,06,25,15,09,313.40
2012,06,25,15,10,301.00
2012,06,25,15,11,290.60
2012,06,25,15,12,287.00
2012,06,25,15,13,279.80
2012,06,25,15,14,279.30
2012,06,25,15,15,282.20
2012,06,25,15,16,287.20
2012,06,25,15,17,294.20
2012,06,25,15,18,300.70
2012,06,25,15,19,306.00
2012,06,25,15,20,316.40
2012,06,25,15,21,324.50
2012,06,25,15,22,334.00
2012,06,25,15,23,342.60
2012,06,25,15,24,349.00
2012,06,25,15,25,353.10
2012,06,25,15,26,357.00
2012,06,25,15,27,357.00
2012,06,25,15,28,358.00
2012,06,25,15,29,361.10
2012,06,25,15,30,366.00
2012,06,25,15,31,376.20
2012,06,25,15,32,383.80
2012,06,25,15,33,388.80
2012,06,25,15,34,400.00
2012,06,25,15,35,403.50
2012,06,25,15,36,405.00
2012,06,25,15,37,408.10
2012,06,25,15,38,411.20
2012,06,25,15,39,415.80
2012,06,25,15,40,420.90
2012,06,25,15,41,438.70
2012,06,25,15,42,427.30
2012,06,25,15,43,417.50
2012,06,25,15,44,408.20
2012,06,25,15,45,397.00
2012,06,25,15,46,388.00
2012,06,25,15,47,378.20
2012,06,25,15,48,371.50
2012,06,25,15,49,365.50
2012,06,25,15,50,353.70
2012,06,25,15,51,342.90
2012,06,25,15,52,339.00
2012,06,25,15,53,338.20
2012,06,25,15,54,334.90
2012,06,25,15,55,343.00
2012,06,25,15,56,463.60
2012,06,25,15,57,750.00
2012,06,25,15,58,773.70
2012,06,25,15,59,784.00
2012,06,25,16,00,401.80
2012,06,25,16,01,346.10
2012,06,25,16,02,347.10
2012,06,25,16,03,388.00
2012,06,25,16,04,394.00
2012,06,25,16,05,359.80
2012,06,25,16,06,346.10
2012,06,25,16,07,354.40
2012,06,25,16,08,366.50
2012,06,25,16,09,378.00
2012,06,25,16,10,385.00
2012,06,25,16,11,385.00
2012,06,25,16,12,548.40
2012,06,25,16,13,557.00
2012,06,25,16,14,582.20
2012,06,25,16,15,633.50
2012,06,25,16,16,638.00
2012,06,25,16,17,638.00
2012,06,25,16,18,470.20
2012,06,25,16,19,492.00
2012,06,25,16,20,649.60
2012,06,25,16,21,881.00
2012,06,25,16,22,889.60
2012,06,25,16,23,895.00
2012,06,25,16,24,784.90
2012,06,25,16,25,793.00
2012,06,25,16,26,793.00
2012,06,25,16,27,585.10
2012,06,25,16,28,426.20
2012,06,25,16,29,382.20
2012,06,25,16,30,373.00
2012,06,25,16,31,483.10
2012,06,25,16,32,739.20
2012,06,25,16,33,725.40
2012,06,25,16,34,711.80
2012,06,25,16,35,680.50
2012,06,25,16,36,693.50
2012,06,25,16,37,698.70
2012,06,25,16,38,705.00
2012,06,25,16,39,698.10
2012,06,25,16,40,694.00
2012,06,25,16,41,694.00
2012,06,25,16,42,705.00
2012,06,25,16,43,708.20
2012,06,25,16,44,699.00
2012,06,25,16,45,697.30
2012,06,25,16,46,708.80
2012,06,25,16,47,715.80
2012,06,25,16,48,693.10
2012,06,25,16,49,677.80
2012,06,25,16,50,660.00
2012,06,25,16,51,663.70
2012,06,25,16,52,670.80
2012,06,25,16,53,671.90
2012,06,25,16,54,661.20
2012,06,25,16,55,651.60
2012,06,25,16,56,630.70
2012,06,25,16,57,595.70
2012,06,25,16,58,555.40
2012,06,25,16,59,510.50
2012,06,25,17,00,443.70
2012,06,25,17,01,403.00
2012,06,25,17,02,389.70
2012,06,25,17,03,415.00
2012,06,25,17,04,367.00
2012,06,25,17,05,294.40
2012,06,25,17,06,357.00
2012,06,25,17,07,337.80
2012,06,25,17,08,261.70
2012,06,25,17,09,213.20